Bluefield, WV

9:09 AM EST on December 09, 2019 (GMT -0500)
Mercer County

Weather History for KBLF - October, 2019

Change the Weather History Date:

Tuesday, October 22, 2019

  Actual Average Record
Temperature  
Mean Temperature 53 °F 55 °F  
Max Temperature 62 °F 64 °F 80 °F (1947)
Min Temperature 44 °F 46 °F 17 °F (1952)
Degree Days  
Heating Degree Days 12 11  
Month to date heating degree days 190 180  
Since 1 July heating degree days 218 259  
Cooling Degree Days 0 0  
Month to date cooling degree days 32 16  
Year to date cooling degree days 748 848  
Growing Degree Days 4 (Base 50)    
Moisture  
Dew Point 51 °F    
Average Humidity 78    
Maximum Humidity 100    
Minimum Humidity 55    
Precipitation  
Precipitation 0.59 in 0.08 in 1.36 in (1929)
Month to date precipitation 4.49 1.78  
Year to date precipitation 33.02 33.31  
Snow  
Snow 0.00 in - - ()
Month to date snowfall 0.0  
Since 1 July snowfall 0.0  
Since 1 September snowfall 0.0  
Snow Depth 0.00 in    
Sea Level Pressure  
Sea Level Pressure 29.89 in    
Wind  
Wind Speed 9 mph (WSW)    
Max Wind Speed 18 mph    
Max Gust Speed 30 mph    
Visibility 8 miles    
Events Rain    
T = Trace of Precipitation, MM = Missing Value Source: NWS Daily Summary

Daily Weather History Graph

Daily Weather History Graph

Search for Another Location

Airport or City:

Astronomy

Oct. 22, 2019 Rise Set
Actual Time 7:39 AM EDT 6:38 PM EDT
Civil Twilight 7:12 AM EDT 7:05 PM EDT
Nautical Twilight 6:42 AM EDT 7:35 PM EDT
Astronomical Twilight 6:12 AM EDT 8:05 PM EDT
Moon 12:58 AM EDT (10/22) 3:37 PM EDT (10/22)
Length of Visible Light 11h 52m
Length of Day
10h 59m
Last Quarter, 37% of the Moon is Illuminated
Oct 22
Last Quarter
Oct 27
New
Nov 4
First Quarter
Nov 12
Full
Nov 19
Last Quarter

Hourly Weather History & Observations

Time (EDT) Temp. Windchill Dew Point Humidity Pressure Visibility Wind Dir Wind Speed Gust Speed Precip Events Conditions
12:52 AM 60.1 °F - 55.0 °F 83% 29.92 in 10.0 mi Variable 5.8 mph - N/A   Scattered Clouds
1:03 AM 60.1 °F - 55.0 °F 83% 29.99 in 10.0 mi South 8.1 mph - N/A   Mostly Cloudy
1:23 AM 61.0 °F - 55.0 °F 81% 29.98 in 10.0 mi South 10.4 mph 17.3 mph N/A   Scattered Clouds
1:52 AM 61.0 °F - 55.0 °F 81% 29.89 in 10.0 mi Variable 6.9 mph 18.4 mph N/A   Mostly Cloudy
2:52 AM 61.0 °F - 55.0 °F 81% 29.85 in 10.0 mi SSE 12.7 mph 19.6 mph N/A   Mostly Cloudy
3:45 AM 62.1 °F - 55.0 °F 78% 29.91 in 10.0 mi South 9.2 mph 20.7 mph N/A   Mostly Cloudy
3:52 AM 62.1 °F - 55.0 °F 78% 29.83 in 10.0 mi North - - N/A   Mostly Cloudy
4:36 AM 62.1 °F - 55.0 °F 78% 29.92 in 10.0 mi South 10.4 mph 21.9 mph N/A   Overcast
4:52 AM 62.1 °F - 55.0 °F 78% 29.83 in 10.0 mi South 15.0 mph 20.7 mph N/A   Overcast
5:34 AM 62.1 °F - 55.0 °F 78% 29.89 in 10.0 mi North - - N/A   Overcast
5:52 AM 61.0 °F - 55.9 °F 83% 29.83 in 10.0 mi North - - N/A   Overcast
6:52 AM 62.1 °F - 55.9 °F 80% 29.80 in 10.0 mi North - - N/A   Overcast
7:52 AM 61.0 °F - 57.0 °F 87% 29.79 in 10.0 mi Variable 6.9 mph 20.7 mph N/A   Overcast
8:40 AM 57.0 °F - 55.9 °F 96% 29.91 in 2.0 mi West 12.7 mph 25.3 mph 0.10 in Rain Heavy Rain
8:42 AM 55.9 °F - 55.9 °F 100% 29.91 in 1.5 mi West 10.4 mph 25.3 mph 0.12 in Rain Heavy Rain
8:52 AM 55.0 °F - 55.0 °F 100% 29.86 in 1.0 mi West 12.7 mph 19.6 mph 0.24 in Rain Heavy Rain
8:59 AM 54.0 °F - 54.0 °F 100% 29.92 in 1.5 mi West 11.5 mph - 0.04 in Rain Heavy Rain
9:08 AM 54.0 °F - 54.0 °F 100% 29.92 in 2.5 mi West 8.1 mph - 0.07 in Rain Rain
9:16 AM 54.0 °F - 54.0 °F 100% 29.92 in 3.0 mi West 9.2 mph - 0.08 in Rain Rain
9:26 AM 53.1 °F - 53.1 °F 100% 29.93 in 2.5 mi West 6.9 mph - 0.12 in Rain Heavy Rain
9:36 AM 53.1 °F - 53.1 °F 100% 29.93 in 3.0 mi WNW 8.1 mph - 0.14 in Rain Rain
9:52 AM 53.1 °F - 53.1 °F 100% 29.88 in 3.0 mi West 4.6 mph - 0.16 in Rain Light Rain
10:52 AM 51.1 °F - 51.1 °F 100% 29.88 in 7.0 mi West 8.1 mph - 0.02 in Rain Light Rain
11:05 AM 51.1 °F - 51.1 °F 100% 29.93 in 4.0 mi WSW 9.2 mph - 0.02 in Rain Heavy Rain
11:15 AM 51.1 °F - 51.1 °F 100% 29.92 in 2.0 mi WSW 8.1 mph - 0.06 in Rain Rain
11:25 AM 51.1 °F - 51.1 °F 100% 29.92 in 2.0 mi West 5.8 mph - 0.10 in Rain Heavy Rain
11:41 AM 51.1 °F - 51.1 °F 100% 29.91 in 8.0 mi West 6.9 mph - 0.12 in Rain Light Rain
12:27 PM 52.0 °F - 52.0 °F 100% 29.91 in 10.0 mi Variable 3.5 mph - 0.01 in Rain Light Rain
12:52 PM 53.1 °F - 53.1 °F 100% 29.85 in 10.0 mi West 8.1 mph - 0.03 in Rain Light Rain
1:13 PM 53.1 °F - 52.0 °F 96% 29.89 in 10.0 mi WSW 10.4 mph - 0.01 in Rain Light Rain
1:35 PM 54.0 °F - 53.1 °F 97% 29.88 in 10.0 mi WNW 6.9 mph - 0.01 in   Overcast
1:45 PM 54.0 °F - 51.1 °F 90% 29.88 in 10.0 mi West 9.2 mph - 0.01 in   Mostly Cloudy
1:52 PM 54.0 °F - 51.1 °F 90% 29.82 in 10.0 mi West 12.7 mph - 0.01 in   Mostly Cloudy
2:05 PM 55.0 °F - 48.9 °F 80% 29.87 in 10.0 mi West 8.1 mph 20.7 mph N/A   Scattered Clouds
2:52 PM 57.9 °F - 46.9 °F 67% 29.80 in 10.0 mi West 12.7 mph 26.5 mph N/A   Clear
3:52 PM 59.0 °F - 46.0 °F 62% 29.79 in 10.0 mi WSW 16.1 mph 20.7 mph N/A   Mostly Cloudy
4:52 PM 57.9 °F - 44.1 °F 60% 29.81 in 10.0 mi West 13.8 mph 21.9 mph N/A   Scattered Clouds
5:52 PM 57.9 °F - 44.1 °F 60% 29.83 in 10.0 mi WNW 4.6 mph 17.3 mph N/A   Overcast
6:52 PM 55.0 °F - 39.0 °F 55% 29.85 in 10.0 mi West 10.4 mph - N/A   Clear
7:52 PM 52.0 °F - 37.0 °F 57% 29.89 in 10.0 mi West 6.9 mph - N/A   Clear
8:52 PM 48.0 °F - 39.0 °F 71% 29.92 in 10.0 mi SW 3.5 mph - N/A   Clear
9:52 PM 46.9 °F - 37.9 °F 71% 29.95 in 10.0 mi WSW 5.8 mph - N/A   Clear
10:52 PM 46.0 °F 43.1 °F 39.0 °F 76% 29.96 in 10.0 mi WSW 5.8 mph - N/A   Clear
11:52 PM 46.9 °F - 37.9 °F 71% 29.96 in 10.0 mi West 4.6 mph - N/A   Clear